sat.trackr.live / text

‹ back to catalog

STARLINK-1269

NORAD 45197 · 2020-012V

PAYLOAD ACTIVE UNKNOWN

§ Identity

Operator
Country
US
Launch date
2020-02-17
Launch site
AFETR
Launch vehicle
Mass (kg)
RCS (m²)

Purposes: comms

External: N2YO · Heavens-Above · Gunter

§ Orbital elements

Epoch: 2026-09-08T09:53:39.568128Z

Period
93.36 min
Inclination
53.1518°
Eccentricity
0.0002796
Mean motion
15.42379881 rev/d
Perigee alt
437.2 km
Apogee alt
441.0 km
Semi-major
6,817.2 km
B*
1.0459e-3
RAAN
264.1825°
Arg perigee
26.6786°
Mean anomaly
333.4363°
Rev number
36,298

§ Raw data

STARLINK-12691 45197U 20012V   26251.41226352  .00045716  00000+0  10459-2 0  99952 45197  53.1518 264.1825 0002796  26.6786 333.4363 15.42379881362989

JSON: /api/v1/satellites/45197 · /tle

For live sub-satellite position, see the globe view (requires WebGL).

§ Visibility from observer

Set your observer location to see the next 7 days of passes ≥ 10°. The values pass through the URL so the page stays shareable.

No JS? Fill the form by hand. The geolocation button needs JavaScript.